FW7881 Weather Reports


Display with metric or nautical units.
time (UTC)temp
F
wind
direction
speed
MPH
gust
MPH
rain 1hr
in
rain 24hr
in
rain mn
in
humidity
%
barometer
mb
20260502213104 65 248 3.0 9.0 0.00 0.00 0.00 33 1011.9
20260502211552 66 231 5.0 9.0 0.00 0.00 0.00 33 1012.1
20260502210050 65 289 2.0 10.0 0.00 0.00 0.00 33 1012.4
20260502204545 65 252 2.0 6.0 0.00 0.00 0.00 35 1012.7
20260502203109 65 245 3.0 10.0 0.00 0.00 0.00 32 1013.0
20260502201546 64 182 2.0 11.0 0.00 0.00 0.00 33 1013.3
20260502200055 63 0 2.0 9.0 0.00 0.00 0.00 33 1013.8
20260502194551 63 0 2.0 12.0 0.00 0.00 0.00 34 1014.1
20260502193048 62 216 1.0 12.0 0.00 0.00 0.00 36 1014.2
20260502191549 61 278 3.0 11.0 0.00 0.00 0.00 34 1014.7
20260502190051 61 0 3.0 10.0 0.00 0.00 0.00 34 1015.0
20260502184546 60 216 1.0 14.0 0.00 0.00 0.00 36 1015.1
20260502183048 60 200 2.0 8.0 0.00 0.00 0.00 35 1015.4
20260502181548 59 210 2.0 9.0 0.00 0.00 0.00 36 1015.7
20260502163104 56 0 0.0 7.0 0.00 0.00 0.00 38 1017.3
20260502161604 55 94 2.0 9.0 0.00 0.00 0.00 40 1017.6
20260502151555 53 243 0.0 5.0 0.00 0.00 0.00 46 1018.1
20260502123110 38 0 0.0 1.0 0.00 0.00 0.00 73 1018.8
20260502121544 37 0 0.0 1.0 0.00 0.00 0.00 74 1018.6
20260502114544 36 0 0.0 1.0 0.00 0.00 0.00 75 1018.4
20260502113053 35 0 0.0 0.0 0.00 0.00 0.00 75 1018.4
20260502111551 35 0 0.0 0.0 0.00 0.00 0.00 75 1018.3
20260502110051 35 0 0.0 0.0 0.00 0.00 0.00 74 1018.2
20260502104548 35 0 0.0 0.0 0.00 0.00 0.00 74 1018.2
20260502103044 35 0 0.0 0.0 0.00 0.00 0.00 73 1018.2
20260502101542 35 0 0.0 0.0 0.00 0.00 0.00 74 1018.1
20260502070105 39 0 0.0 0.0 0.00 0.00 0.00 67 1018.5
20260502064553 38 0 0.0 0.0 0.00 0.00 0.00 68 1018.5
20260502063053 39 0 0.0 0.0 0.00 0.00 0.00 68 1018.5
20260502061550 39 0 0.0 0.0 0.00 0.00 0.00 66 1018.5
20260502060052 39 0 0.0 0.0 0.00 0.00 0.00 66 1018.6
20260502054548 39 0 0.0 0.0 0.00 0.00 0.00 66 1018.6
20260502053053 40 0 0.0 0.0 0.00 0.00 0.00 63 1018.7
20260502051602 40 0 0.0 0.0 0.00 0.00 0.00 61 1018.6
20260502050056 39 0 0.0 0.0 0.00 0.00 0.00 66 1018.6
20260502044549 39 0 0.0 0.0 0.00 0.00 0.00 63 1018.5
20260502043053 39 0 0.0 0.0 0.00 0.00 0.00 60 1018.5
20260502041549 39 0 0.0 0.0 0.00 0.00 0.00 60 1018.5
20260502040105 40 0 0.0 0.0 0.00 0.00 0.00 56 1018.4
20260502034551 42 0 0.0 0.0 0.00 0.00 0.00 55 1018.6
20260502033051 43 0 0.0 0.0 0.00 0.00 0.00 59 1018.6
20260502031553 42 0 0.0 0.0 0.00 0.00 0.00 57 1018.8
20260502030051 42 0 0.0 0.0 0.00 0.00 0.00 56 1018.8
20260502024551 43 0 0.0 0.0 0.00 0.00 0.00 52 1018.8
20260502023048 44 0 0.0 0.0 0.00 0.00 0.00 50 1018.6
20260502021549 45 0 0.0 0.0 0.00 0.00 0.00 48 1018.6
20260502020056 46 0 0.0 0.0 0.00 0.00 0.00 47 1018.4
20260502014549 48 0 0.0 0.0 0.00 0.00 0.00 42 1018.3
20260502013048 49 0 0.0 0.0 0.00 0.00 0.00 40 1018.1
20260502011551 50 0 0.0 1.0 0.00 0.00 0.00 38 1018.1
20260502010050 50 0 0.0 0.0 0.00 0.00 0.00 36 1018.1
20260502004547 51 0 0.0 0.0 0.00 0.00 0.00 36 1018.0
20260502003046 52 0 0.0 1.0 0.00 0.00 0.00 36 1018.0
20260502001557 52 0 0.0 4.0 0.00 0.00 0.00 35 1018.0
20260502000054 50 0 0.0 0.0 0.00 0.00 0.00 35 1018.0
20260501234544 50 0 0.0 5.0 0.00 0.00 0.00 37 1018.1
20260501233047 50 0 0.0 4.0 0.00 0.00 0.00 37 1018.0
20260501231554 51 0 0.0 0.0 0.00 0.00 0.00 35 1017.9
20260501230050 51 0 1.0 7.0 0.00 0.00 0.00 35 1018.1
20260501224548 52 0 1.0 8.0 0.00 0.00 0.00 34 1018.1
20260501223047 52 319 0.0 9.0 0.00 0.00 0.00 33 1018.0
20260501221556 52 0 2.0 8.0 0.00 0.00 0.00 35 1018.0
20260501220058 52 0 0.0 7.0 0.00 0.00 0.00 36 1018.1
20260501214554 52 310 2.0 9.0 0.00 0.00 0.00 32 1018.1